| time (UTC) | temp F | wind direction | speed knots | gust knots | rain 1hr in | rain 24hr in | rain mn in | humidity % | barometer mb |
| 20260904053037 | 67 | 214 | 2.6 | 4.3 | 0.00 | 0.00 | 0.00 | 86 | 1012.5 |
| 20260904051536 | 67 | 215 | 1.7 | 5.2 | 0.00 | 0.00 | 0.00 | 86 | 1012.5 |
| 20260904050034 | 67 | 215 | 1.7 | 4.3 | 0.00 | 0.00 | 0.00 | 85 | 1012.5 |
| 20260904044542 | 68 | 216 | 1.7 | 5.2 | 0.00 | 0.00 | 0.00 | 84 | 1012.5 |
| 20260904043031 | 68 | 229 | 1.7 | 5.2 | 0.00 | 0.00 | 0.00 | 85 | 1012.7 |
| 20260904041533 | 67 | 232 | 2.6 | 5.2 | 0.00 | 0.00 | 0.00 | 85 | 1012.9 |
| 20260904040028 | 67 | 200 | 2.6 | 7.0 | 0.00 | 0.00 | 0.00 | 86 | 1013.0 |
| 20260904034527 | 67 | 223 | 1.7 | 3.5 | 0.00 | 0.00 | 0.00 | 86 | 1013.1 |
| 20260904033026 | 67 | 223 | 1.7 | 5.2 | 0.00 | 0.00 | 0.00 | 86 | 1013.2 |
| 20260904031524 | 66 | 225 | 2.6 | 6.1 | 0.00 | 0.00 | 0.00 | 87 | 1013.3 |
| 20260904030022 | 66 | 228 | 1.7 | 5.2 | 0.00 | 0.00 | 0.00 | 86 | 1013.5 |
| 20260904024521 | 67 | 229 | 2.6 | 6.1 | 0.00 | 0.00 | 0.00 | 86 | 1013.5 |
| 20260904023017 | 67 | 231 | 1.7 | 3.5 | 0.00 | 0.00 | 0.00 | 85 | 1013.8 |
| 20260904021521 | 67 | 232 | 1.7 | 5.2 | 0.00 | 0.00 | 0.00 | 85 | 1014.1 |
| 20260904020016 | 67 | 234 | 1.7 | 6.1 | 0.00 | 0.00 | 0.00 | 85 | 1014.1 |
| 20260904014521 | 67 | 212 | 1.7 | 6.1 | 0.00 | 0.00 | 0.00 | 86 | 1014.3 |
| 20260904013013 | 67 | 220 | 2.6 | 5.2 | 0.00 | 0.00 | 0.00 | 86 | 1014.2 |
| 20260904011526 | 67 | 210 | 2.6 | 5.2 | 0.00 | 0.00 | 0.00 | 86 | 1014.3 |
| 20260904010017 | 67 | 209 | 2.6 | 7.0 | 0.00 | 0.00 | 0.00 | 86 | 1014.4 |
| 20260904004509 | 67 | 246 | 0.9 | 4.3 | 0.00 | 0.00 | 0.00 | 86 | 1014.6 |
| 20260904003007 | 67 | 254 | 0.9 | 3.5 | 0.00 | 0.00 | 0.00 | 85 | 1014.8 |
| 20260904001505 | 67 | 254 | 0.0 | 2.6 | 0.00 | 0.00 | 0.00 | 85 | 1014.9 |
| 20260904000003 | 68 | 254 | 0.9 | 2.6 | 0.00 | 0.00 | 0.00 | 84 | 1015.1 |
| 20260903234502 | 68 | 254 | 0.0 | 2.6 | 0.00 | 0.00 | 0.00 | 84 | 1015.2 |
| 20260903233103 | 68 | 254 | 0.9 | 3.5 | 0.00 | 0.00 | 0.00 | 84 | 1015.2 |
| 20260903231600 | 68 | 254 | 0.9 | 2.6 | 0.00 | 0.00 | 0.00 | 84 | 1015.3 |
| 20260903224608 | 68 | 254 | 0.9 | 3.5 | 0.00 | 0.00 | 0.00 | 83 | 1015.3 |
| 20260903223056 | 68 | 255 | 0.9 | 3.5 | 0.00 | 0.00 | 0.00 | 83 | 1015.5 |
| 20260903221555 | 68 | 255 | 1.7 | 7.8 | 0.00 | 0.00 | 0.00 | 84 | 1015.8 |
| 20260903220111 | 68 | 217 | 1.7 | 4.3 | 0.00 | 0.00 | 0.00 | 84 | 1015.9 |
| 20260903214552 | 68 | 215 | 1.7 | 3.5 | 0.00 | 0.00 | 0.00 | 84 | 1016.0 |
| 20260903213051 | 68 | 215 | 1.7 | 4.3 | 0.00 | 0.00 | 0.00 | 84 | 1016.1 |
| 20260903211615 | 67 | 202 | 1.7 | 4.3 | 0.00 | 0.00 | 0.00 | 84 | 1016.2 |
| 20260903210055 | 67 | 189 | 1.7 | 4.3 | 0.00 | 0.00 | 0.00 | 84 | 1016.2 |
| 20260903204550 | 67 | 183 | 1.7 | 6.1 | 0.00 | 0.00 | 0.00 | 84 | 1016.2 |
| 20260903203050 | 67 | 209 | 2.6 | 6.1 | 0.00 | 0.00 | 0.00 | 84 | 1016.2 |
| 20260903201549 | 67 | 209 | 2.6 | 5.2 | 0.00 | 0.00 | 0.00 | 83 | 1016.2 |
| 20260903200048 | 67 | 209 | 2.6 | 6.1 | 0.00 | 0.00 | 0.00 | 82 | 1016.3 |
| 20260903194547 | 68 | 271 | 3.5 | 7.8 | 0.00 | 0.00 | 0.00 | 82 | 1016.1 |
| 20260903193046 | 68 | 233 | 2.6 | 5.2 | 0.00 | 0.00 | 0.00 | 81 | 1016.1 |
| 20260903191545 | 69 | 239 | 1.7 | 6.1 | 0.00 | 0.00 | 0.00 | 79 | 1016.1 |
| 20260903190045 | 69 | 262 | 2.6 | 5.2 | 0.00 | 0.00 | 0.00 | 78 | 1016.2 |
| 20260903184543 | 70 | 238 | 2.6 | 7.0 | 0.00 | 0.00 | 0.00 | 77 | 1016.3 |
| 20260903183043 | 70 | 219 | 2.6 | 9.6 | 0.00 | 0.00 | 0.00 | 76 | 1016.1 |
| 20260903181542 | 71 | 225 | 4.3 | 10.4 | 0.00 | 0.00 | 0.00 | 74 | 1016.1 |
| 20260903180041 | 71 | 248 | 4.3 | 11.3 | 0.00 | 0.00 | 0.00 | 73 | 1016.2 |
| 20260903174557 | 72 | 238 | 4.3 | 9.6 | 0.00 | 0.00 | 0.00 | 72 | 1016.0 |
| 20260903173041 | 72 | 243 | 5.2 | 13.9 | 0.00 | 0.00 | 0.00 | 72 | 1016.3 |
| 20260903171539 | 72 | 244 | 3.5 | 12.2 | 0.00 | 0.00 | 0.00 | 70 | 1016.0 |
| 20260903170103 | 73 | 245 | 7.8 | 14.8 | 0.00 | 0.00 | 0.00 | 69 | 1016.0 |
| 20260903164548 | 74 | 242 | 5.2 | 13.9 | 0.00 | 0.00 | 0.00 | 67 | 1016.1 |
| 20260903163038 | 75 | 232 | 6.1 | 13.0 | 0.00 | 0.00 | 0.00 | 65 | 1016.0 |
| 20260903161539 | 75 | 219 | 8.7 | 20.0 | 0.00 | 0.00 | 0.00 | 66 | 1015.8 |
| 20260903160037 | 75 | 238 | 7.8 | 17.4 | 0.00 | 0.00 | 0.00 | 66 | 1016.0 |
| 20260903154536 | 73 | 242 | 4.3 | 15.6 | 0.00 | 0.00 | 0.00 | 69 | 1016.0 |
| 20260903153043 | 72 | 221 | 7.0 | 14.8 | 0.00 | 0.00 | 0.00 | 70 | 1016.3 |
| 20260903151547 | 73 | 298 | 8.7 | 18.2 | 0.00 | 0.00 | 0.00 | 67 | 1016.1 |
| 20260903150035 | 74 | 253 | 8.7 | 15.6 | 0.00 | 0.00 | 0.00 | 66 | 1016.1 |
| 20260903144535 | 74 | 254 | 6.1 | 15.6 | 0.00 | 0.00 | 0.00 | 66 | 1016.1 |
| 20260903143033 | 73 | 255 | 4.3 | 20.0 | 0.00 | 0.00 | 0.00 | 67 | 1016.3 |
| 20260903141534 | 73 | 276 | 7.0 | 12.2 | 0.00 | 0.00 | 0.00 | 66 | 1016.3 |
| 20260903140032 | 75 | 252 | 7.0 | 14.8 | 0.00 | 0.00 | 0.00 | 64 | 1016.2 |
| 20260903134531 | 76 | 249 | 4.3 | 19.1 | 0.00 | 0.00 | 0.00 | 61 | 1016.1 |
| 20260903133130 | 77 | 246 | 9.6 | 17.4 | 0.00 | 0.00 | 0.00 | 60 | 1015.9 |
| 20260903131528 | 77 | 254 | 5.2 | 12.2 | 0.00 | 0.00 | 0.00 | 60 | 1015.7 |
| 20260903130026 | 77 | 217 | 6.1 | 11.3 | 0.00 | 0.00 | 0.00 | 62 | 1015.8 |
| 20260903124525 | 77 | 279 | 2.6 | 13.0 | 0.00 | 0.00 | 0.00 | 61 | 1015.9 |
| 20260903123025 | 77 | 268 | 6.1 | 13.0 | 0.00 | 0.00 | 0.00 | 60 | 1015.8 |
| 20260903121521 | 76 | 213 | 1.7 | 7.8 | 0.00 | 0.00 | 0.00 | 62 | 1015.7 |
| 20260903120025 | 75 | 224 | 8.7 | 14.8 | 0.00 | 0.00 | 0.00 | 63 | 1015.6 |
| 20260903114516 | 73 | 244 | 6.1 | 13.0 | 0.00 | 0.00 | 0.00 | 63 | 1015.8 |
| 20260903113012 | 73 | 245 | 5.2 | 15.6 | 0.00 | 0.00 | 0.00 | 65 | 1015.8 |
| 20260903111511 | 71 | 253 | 4.3 | 9.6 | 0.00 | 0.00 | 0.00 | 67 | 1015.8 |
| 20260903110010 | 70 | 238 | 4.3 | 12.2 | 0.00 | 0.00 | 0.00 | 67 | 1015.6 |
| 20260903104509 | 71 | 250 | 4.3 | 13.9 | 0.00 | 0.00 | 0.00 | 67 | 1015.7 |
| 20260903103010 | 72 | 252 | 6.1 | 17.4 | 0.00 | 0.00 | 0.00 | 64 | 1015.7 |
| 20260903101508 | 72 | 240 | 7.0 | 16.5 | 0.00 | 0.00 | 0.00 | 65 | 1015.7 |
| 20260903100007 | 72 | 261 | 9.6 | 18.2 | 0.00 | 0.00 | 0.00 | 63 | 1015.8 |
| 20260903094506 | 72 | 228 | 8.7 | 13.0 | 0.00 | 0.00 | 0.00 | 62 | 1015.7 |
| 20260903093002 | 71 | 242 | 4.3 | 13.0 | 0.00 | 0.00 | 0.00 | 64 | 1015.8 |
| 20260903091558 | 70 | 235 | 5.2 | 8.7 | 0.00 | 0.00 | 0.00 | 65 | 1016.0 |
| 20260903090057 | 69 | 183 | 2.6 | 7.8 | 0.00 | 0.00 | 0.00 | 65 | 1016.0 |
| 20260903084555 | 69 | 174 | 1.7 | 7.0 | 0.00 | 0.00 | 0.00 | 63 | 1016.0 |
| 20260903083053 | 68 | 180 | 3.5 | 6.1 | 0.00 | 0.00 | 0.00 | 64 | 1015.8 |
| 20260903081550 | 68 | 222 | 2.6 | 8.7 | 0.00 | 0.00 | 0.00 | 64 | 1016.0 |
| 20260903080047 | 67 | 175 | 3.5 | 7.0 | 0.00 | 0.00 | 0.00 | 65 | 1016.0 |
| 20260903074543 | 66 | 213 | 2.6 | 7.8 | 0.00 | 0.00 | 0.00 | 66 | 1016.0 |
| 20260903073046 | 65 | 196 | 2.6 | 6.1 | 0.00 | 0.00 | 0.00 | 68 | 1016.0 |
| 20260903070042 | 65 | 180 | 3.5 | 7.0 | 0.00 | 0.00 | 0.00 | 67 | 1016.2 |
| 20260903064534 | 64 | 201 | 2.6 | 5.2 | 0.00 | 0.00 | 0.00 | 67 | 1016.3 |
| 20260903063032 | 64 | 200 | 2.6 | 7.0 | 0.00 | 0.00 | 0.00 | 68 | 1016.3 |
| 20260903061541 | 63 | 190 | 2.6 | 6.1 | 0.00 | 0.00 | 0.00 | 68 | 1016.3 |
| 20260903060030 | 63 | 194 | 4.3 | 7.8 | 0.00 | 0.00 | 0.00 | 68 | 1016.2 |
| 20260903054522 | 63 | 194 | 2.6 | 6.1 | 0.00 | 0.00 | 0.00 | 69 | 1016.0 |